Regional Weather Roundup
Issued by NWS

Home | Current Version | Previous Version | Graphics & Text | Print | Product List | Glossary On
Versions: 1 2 3 4 5 6 7 8 9 10 11 12 13 14 15 16 17 18 19 20 21 22 23 24 25 26 27 28
000
ASUS45 KSLC 181310
RWRUT

UTAH REGIONAL WEATHER ROUNDUP
NATIONAL WEATHER SERVICE SALT LAKE CITY UT
600 AM MST WED JAN 18 2017

UTZ001>011-023>025-181400-

NORTHERN UTAH

CITY           SKY/WX    TMP DP  RH WIND       PRES   REMARKS
BRIGHAM CITY     N/A      7   3  82 N3        30.19S
HILL AFB       PTCLDY    16   8  70 E17       30.14F WCI   0
LOGAN          PTCLDY    -1  -3  91 N8        30.18F FOG     WCI -15
OGDEN          PTCLDY    16   9  74 S12       30.15F WCI   3
SALT LAKE CITY PTCLDY    20  16  84 SE7       30.17F WCI  11
TOOELE VALLEY  CLOUDY    21  21 100 CALM      30.17F FOG
WENDOVER       CLOUDY    21  16  79 CALM      30.18F
HEBER CITY     FOG        0  -6  78 CALM      30.16R VSB 1/4
WEST JORDAN    CLEAR     18  18 100 CALM      30.17F

$$

UTZ011>015-024>027-181400-

CENTRAL/NORTHEAST UTAH

CITY           SKY/WX    TMP DP  RH WIND       PRES   REMARKS
PROVO AIRPORT  PTCLDY    14  11  87 E3        30.20R
MOAB/CANYONLAN CLEAR     27  22  81 VRB3      30.15S
DELTA          CLEAR     16  14  93 SE7       30.15F WCI   6
PRICE          PTCLDY     9   1  70 NE3       30.13R
RICHFIELD      CLEAR     16  18 100 N3        30.19R
ROOSEVELT      CLOUDY    18  12  79 SW3       30.26R
VERNAL         CLOUDY    13  10  88 N7        30.24R WCI   3

$$

UTZ013>016-019>022-027-181400-

SOUTHERN UTAH

CITY           SKY/WX    TMP DP  RH WIND       PRES   REMARKS
BRYCE CANYON   CLEAR     -7 -12  79 W7        30.13R WCI -21
CEDAR CITY     CLEAR     18  14  84 CALM      30.12F
MILFORD        CLEAR     17  15  92 SW6       30.14F WCI   9
ST GEORGE      SUNNY     30  23  74 CALM      30.20S
HANKSVILLE     PTCLDY    23  21  93 MISG      30.19S
KANAB          CLEAR     27  23  86 NE3       30.20R
BLANDING       CLEAR     26  25  96 CALM      30.19S

$$

REGIONAL REPORTS     COLORADO/ARIZONA

CITY           SKY/WX    TMP DP  RH WIND       PRES   REMARKS
CRAIG, CO      CLOUDY     3  -1  83 CALM      30.17S
GRAND JUNCTION CLOUDY    28  27  96 E6        30.14S WCI  22
RIFLE, CO      CLOUDY    27  23  85 SW5       30.16S WCI  22
MONTROSE, CO   CLOUDY    32  30  92 CALM      30.16S
CORTEZ, CO     CLEAR     23  21  92 E3        30.13S
COLORADO CITY    N/A     23  21  93 CALM      30.19R
PAGE, AZ       CLEAR     33  24  69 W3        30.15R
GRAND CANYON   CLEAR     18  16  92 E3        30.15R
KINGMAN, AZ    CLEAR     29  25  85 CALM      30.13S
FLAGSTAFF, AZ  CLEAR     20  17  88 CALM      30.14R

$$

REGIONAL REPORTS    NEVADA/IDAHO/WYOMING

CITY           SKY/WX    TMP DP  RH WIND       PRES   REMARKS
LAS VEGAS, NV  PTCLDY    38  24  57 SW5       30.12F WCI  34
ELY, NY        PTCLDY     8   2  76 S9        30.10S WCI  -5
ELKO, NV       MOCLDY     6   0  76 E5        30.13S WCI  -3
POCATELLO, ID  CLOUDY     1  -3  83 E3        30.12R
BURLEY, ID     CLEAR     15   9  76 NE7       30.03F WCI   5
FORT BRIDGER,    N/A      9   1  69 W6        30.10S WCI   0
EVANSTON, WY   CLOUDY    15   6  67 SW5       30.08R WCI   8
ROCK SPRINGS,  CLOUDY    -4  -8  83 CALM      30.09S

$$




USA.gov is the U.S. government's official web portal to all federal, state and local government web resources and services.